User: anonymous
Location: Caltech
(34.1382°N, 118.1253°W)
Time: 11:30:14
(UTC-07:00)
Language:

Meteor 1-11 Rocket - Orbit

View from above orbital plane
View from above orbital plane
View from above satellite
View from above satellite

Ground track
Ground track

The orbit data is extracted from the following two-line orbital elements,

1 05918U 72022B   14110.21428749 -.00000016  00000-0 -17095-4 0  1447
2 05918 081.2391 002.1225 0057727 330.2848 143.9626 14.05700045155869
Epoch (UTC): 20 April 2014 05:08:34
Eccentricity: 0.0057727
inclination: 81.2391°
perigee height: 832 km
apogee height: 916 km
right ascension of ascending node: 2.1225°
argument of perigee: 330.2848°
revolutions per day: 14.05700045
mean anomaly at epoch: 143.9626°
orbit number at epoch: 15586

The dashed part of the orbit path shows where the satellite is in the earth's shadow,  

DLR